Location: Tomatin
(57.3367°N, 3.9908°W)
Time: 19:57:04
(UTC+00:00)

ISS - Visible Passes

Search period start: 12 December 2017 00:00
Search period end: 22 December 2017 00:00
Orbit: 402 x 407 km, 51.6° (Epoch: 13 December)

Date Brightness Start Highest point End Pass type
(mag) Time Alt. Az. Time Alt. Az. Time Alt. Az.
12 Dec -2.0 16:17:15 10° WSW 16:20:11 30° S 16:23:07 10° ESE visible
12 Dec -1.3 17:53:42 10° WSW 17:56:04 19° SSW 17:58:26 10° SSE visible
13 Dec -1.5 17:01:23 10° WSW 17:04:03 23° SSW 17:06:42 10° SE visible
14 Dec -0.8 17:46:09 10° WSW 17:47:43 13° SSW 17:49:16 10° S visible
15 Dec -0.9 16:53:29 10° WSW 16:55:43 17° SSW 16:57:56 10° SSE visible
17 Dec -0.4 16:46:07 10° SW 16:47:16 11° SSW 16:48:24 10° SSW visible
